| time (UTC) | temp F | wind direction | speed MPH | gust MPH | rain 1hr in | rain 24hr in | rain mn in | humidity % | barometer mb |
| 20260506061554 | 70 | 168 | 2.0 | 11.0 | 0.00 | 3.16 | 0.00 | 79 | 1004.8 |
| 20260506044543 | 69 | 97 | 1.0 | 7.0 | 1.52 | 3.16 | 3.16 | 80 | 1005.5 |
| 20260506043039 | 68 | 140 | 2.0 | 10.0 | 3.27 | 3.16 | 3.16 | 81 | 1005.4 |
| 20260506041533 | 68 | 150 | 2.0 | 11.0 | 3.82 | 3.16 | 3.16 | 81 | 1005.6 |
| 20260506040027 | 67 | 134 | 2.0 | 7.0 | 2.91 | 3.07 | 3.07 | 83 | 1005.6 |
| 20260506034528 | 67 | 140 | 1.0 | 4.0 | 2.31 | 3.01 | 3.01 | 84 | 1006.0 |
| 20260506033026 | 68 | 167 | 1.0 | 11.0 | 0.55 | 2.84 | 2.84 | 83 | 1006.0 |
| 20260506031533 | 68 | 96 | 1.0 | 10.0 | 0.00 | 2.78 | 2.78 | 80 | 1006.3 |
| 20260506030029 | 68 | 88 | 3.0 | 10.0 | 0.00 | 2.78 | 2.78 | 80 | 1006.2 |
| 20260506024538 | 68 | 179 | 1.0 | 8.0 | 0.00 | 2.78 | 2.78 | 81 | 1006.3 |
| 20260506023023 | 68 | 160 | 1.0 | 11.0 | 0.00 | 2.78 | 2.78 | 80 | 1006.2 |
| 20260506021523 | 68 | 134 | 1.0 | 9.0 | 0.00 | 2.78 | 2.78 | 80 | 1006.0 |
| 20260506020022 | 67 | 117 | 1.0 | 9.0 | 1.34 | 2.78 | 2.78 | 81 | 1005.9 |
| 20260506014525 | 67 | 151 | 1.0 | 5.0 | 1.35 | 2.78 | 2.78 | 81 | 1005.9 |
| 20260506013023 | 66 | 99 | 0.0 | 6.0 | 1.49 | 2.78 | 2.78 | 84 | 1005.9 |
| 20260506011520 | 64 | 247 | 0.0 | 3.0 | 4.91 | 2.78 | 2.78 | 88 | 1005.9 |
| 20260506010017 | 62 | 164 | 0.0 | 4.0 | 7.09 | 2.65 | 2.65 | 94 | 1005.8 |
| 20260506004516 | 62 | 80 | 0.0 | 3.0 | 1.06 | 2.65 | 2.65 | 94 | 1005.9 |
| 20260506003015 | 62 | 143 | 0.0 | 0.0 | 1.38 | 2.62 | 2.62 | 94 | 1006.0 |
| 20260506001614 | 62 | 143 | 0.0 | 0.0 | 1.39 | 2.30 | 2.30 | 94 | 1006.1 |
| 20260506000013 | 62 | 143 | 0.0 | 0.0 | 1.15 | 1.93 | 1.93 | 94 | 1006.1 |
| 20260505234512 | 63 | 142 | 0.0 | 0.0 | 8.42 | 1.57 | 1.57 | 93 | 1006.1 |
| 20260505233010 | 63 | 142 | 0.0 | 0.0 | 7.92 | 1.23 | 1.23 | 92 | 1006.2 |
| 20260505231510 | 63 | 142 | 0.0 | 2.0 | 5.15 | 8.74 | 8.74 | 91 | 1006.5 |
| 20260505230008 | 63 | 142 | 0.0 | 5.0 | 4.19 | 7.78 | 7.78 | 91 | 1006.8 |
| 20260505224507 | 63 | 123 | 0.0 | 0.0 | 3.68 | 7.27 | 7.27 | 92 | 1006.8 |
| 20260505223006 | 63 | 123 | 0.0 | 0.0 | 0.57 | 4.17 | 4.17 | 90 | 1006.9 |
| 20260505221506 | 64 | 123 | 0.0 | 0.0 | 0.00 | 3.59 | 3.59 | 88 | 1006.9 |
| 20260505220004 | 64 | 122 | 0.0 | 0.0 | 0.00 | 3.59 | 3.59 | 87 | 1006.7 |
| 20260505214504 | 64 | 122 | 0.0 | 1.0 | 0.00 | 3.59 | 3.59 | 84 | 1006.7 |
| 20260505213003 | 65 | 121 | 0.0 | 3.0 | 0.00 | 3.59 | 3.59 | 82 | 1006.8 |
| 20260505211502 | 66 | 118 | 0.0 | 4.0 | 0.00 | 3.59 | 3.59 | 80 | 1006.9 |
| 20260505210000 | 66 | 152 | 1.0 | 5.0 | 0.00 | 3.59 | 3.59 | 80 | 1007.0 |
| 20260505204600 | 65 | 123 | 0.0 | 3.0 | 0.00 | 3.59 | 3.59 | 82 | 1007.1 |
| 20260505203100 | 66 | 111 | 2.0 | 8.0 | 0.00 | 3.59 | 3.59 | 76 | 1007.2 |
| 20260505201559 | 68 | 137 | 4.0 | 9.0 | 0.00 | 3.59 | 3.59 | 69 | 1007.4 |
| 20260505200105 | 69 | 110 | 3.0 | 12.0 | 0.00 | 3.59 | 3.59 | 68 | 1007.6 |
| 20260505194557 | 70 | 173 | 3.0 | 9.0 | 0.00 | 3.59 | 3.59 | 67 | 1007.9 |
| 20260505193056 | 70 | 101 | 3.0 | 18.0 | 0.00 | 3.59 | 3.59 | 67 | 1007.9 |
| 20260505191555 | 70 | 172 | 3.0 | 11.0 | 0.00 | 3.59 | 3.59 | 69 | 1008.4 |
| 20260505190053 | 70 | 194 | 2.0 | 14.0 | 0.00 | 3.59 | 3.59 | 69 | 1008.7 |
| 20260505184551 | 70 | 161 | 4.0 | 11.0 | 3.21 | 3.59 | 3.59 | 69 | 1008.6 |
| 20260505183148 | 69 | 145 | 6.0 | 15.0 | 3.55 | 3.59 | 3.59 | 71 | 1008.5 |
| 20260505181549 | 68 | 99 | 1.0 | 10.0 | 3.55 | 3.59 | 3.59 | 75 | 1008.8 |
| 20260505180048 | 67 | 134 | 3.0 | 16.0 | 3.53 | 3.57 | 3.57 | 78 | 1008.9 |
| 20260505174545 | 66 | 160 | 1.0 | 6.0 | 0.10 | 0.14 | 0.14 | 80 | 1008.5 |
| 20260505173036 | 65 | 200 | 2.0 | 6.0 | 0.00 | 0.04 | 0.04 | 82 | 1008.6 |
| 20260505171533 | 64 | 145 | 2.0 | 7.0 | 0.00 | 0.04 | 0.04 | 84 | 1008.6 |
| 20260505170032 | 63 | 130 | 2.0 | 8.0 | 0.00 | 0.04 | 0.04 | 84 | 1009.0 |
| 20260505164530 | 63 | 127 | 1.0 | 6.0 | 0.03 | 0.04 | 0.04 | 85 | 1008.8 |
| 20260505163025 | 62 | 144 | 2.0 | 9.0 | 0.03 | 0.04 | 0.04 | 85 | 1008.6 |
| 20260505161525 | 61 | 136 | 1.0 | 7.0 | 0.03 | 0.04 | 0.04 | 87 | 1008.6 |
| 20260505153018 | 61 | 92 | 0.0 | 1.0 | 0.00 | 0.01 | 0.01 | 85 | 1010.2 |
| 20260505151517 | 61 | 92 | 0.0 | 3.0 | 0.00 | 0.01 | 0.01 | 83 | 1010.0 |
| 20260505124503 | 60 | 118 | 1.0 | 4.0 | 0.00 | 1.21 | 0.01 | 79 | 1009.7 |
| 20260505123001 | 60 | 148 | 0.0 | 2.0 | 0.00 | 1.21 | 0.01 | 80 | 1009.4 |
| 20260505121601 | 60 | 144 | 0.0 | 2.0 | 0.00 | 1.21 | 0.01 | 80 | 1009.4 |
| 20260505120056 | 60 | 145 | 0.0 | 2.0 | 0.00 | 1.21 | 0.01 | 80 | 1009.3 |
| 20260505114559 | 59 | 145 | 0.0 | 3.0 | 0.00 | 1.21 | 0.01 | 80 | 1009.2 |
| 20260505113105 | 59 | 140 | 0.0 | 3.0 | 0.00 | 1.21 | 0.01 | 81 | 1009.0 |
| 20260505111549 | 59 | 141 | 0.0 | 3.0 | 0.00 | 1.21 | 0.01 | 82 | 1008.9 |
| 20260505101552 | 56 | 153 | 0.0 | 0.0 | 0.00 | 1.21 | 0.01 | 86 | 1008.5 |
| 20260505100044 | 56 | 153 | 0.0 | 0.0 | 0.00 | 1.21 | 0.01 | 85 | 1008.5 |
| 20260505094543 | 56 | 153 | 0.0 | 0.0 | 0.00 | 1.21 | 0.01 | 85 | 1008.4 |
| 20260505093044 | 57 | 153 | 0.0 | 0.0 | 0.00 | 1.21 | 0.01 | 84 | 1008.4 |
| 20260505091550 | 57 | 153 | 0.0 | 0.0 | 0.00 | 1.21 | 0.01 | 82 | 1008.5 |
| 20260505090041 | 57 | 153 | 0.0 | 0.0 | 0.00 | 1.21 | 0.01 | 81 | 1008.3 |
| 20260505084539 | 58 | 153 | 0.0 | 0.0 | 0.00 | 1.21 | 0.01 | 80 | 1008.3 |
| 20260505083038 | 58 | 153 | 0.0 | 0.0 | 0.00 | 1.21 | 0.01 | 80 | 1008.1 |
| 20260505081538 | 58 | 153 | 0.0 | 0.0 | 0.00 | 1.21 | 0.01 | 81 | 1008.2 |
| 20260505080039 | 59 | 156 | 0.0 | 0.0 | 0.00 | 1.21 | 0.01 | 79 | 1008.3 |
| 20260505074537 | 59 | 156 | 0.0 | 1.0 | 0.00 | 1.21 | 0.01 | 78 | 1008.0 |
| 20260505073042 | 59 | 157 | 0.0 | 2.0 | 0.00 | 1.21 | 0.01 | 78 | 1007.8 |
| 20260505071543 | 58 | 211 | 0.0 | 1.0 | 0.00 | 1.21 | 0.01 | 78 | 1007.9 |
| 20260505070030 | 57 | 211 | 0.0 | 0.0 | 0.00 | 1.21 | 0.01 | 80 | 1008.5 |
| 20260505064528 | 57 | 211 | 0.0 | 0.0 | 0.00 | 1.21 | 0.01 | 80 | 1008.9 |
| 20260505063027 | 57 | 211 | 0.0 | 0.0 | 0.00 | 1.21 | 0.01 | 80 | 1008.9 |